Regional Weather Roundup
Issued by NWS

Home | Current Version | Previous Version | Graphics & Text | Print | Product List | Glossary On
Versions: 1 2 3 4 5 6 7 8 9 10 11 12 13 14 15 16 17 18 19 20 21 22 23 24 25 26 27 28 29 30 31 32 33 34 35 36 37 38 39 40 41 42 43 44 45 46 47 48 49 50
000
ASUS43 KMPX 240001
RWRMN
WEATHER ROUNDUP FOR MINNESOTA
NATIONAL WEATHER SERVICE TWIN CITIES/CHANHASSEN MN
700 PM CDT WED APR 23 2014


NOTE: "FAIR" INDICATES FEW OR NO CLOUDS BELOW 12,000 FEET WITH NO
SIGNIFICANT WEATHER AND/OR OBSTRUCTIONS TO VISIBILITY. N/A MEANS
CURRENT SKY AND/OR WEATHER CONDITIONS ARE NOT AVAILABLE.

MNZ060>063-068>070-240100-
   Twin Cities Metro

CITY           SKY/WX    TMP DP  RH WIND       PRES   REMARKS
TWIN CITIES    CLOUDY    42  38  85 SE14      29.94F
6HR MIN TEMP:  40; 6HR MAX TEMP:  44; 6HR PCP:  0.19;

ST PAUL        CLOUDY    42  38  85 SE12      29.96F
CRYSTAL        LGT RAIN  43  37  79 SE12      29.93F
EDEN PRAIRIE   LGT RAIN  43  36  76 E14       29.91F
6HR MIN TEMP:  41; 6HR MAX TEMP:  43; 6HR PCP:  0.15;

LAKEVILLE      LGT RAIN  39  36  87 E16       29.92F
SOUTH ST PAUL  DRIZZLE   45  39  79 SE8       29.95F
LAKE ELMO      LGT RAIN  41  37  87 E10       29.97S
$$
MNZ001>005-007-008-013>017-022>024-027-028-240100-
   Northwest Minnesota

CITY           SKY/WX    TMP DP  RH WIND       PRES   REMARKS
BEMIDJI        RAIN      38  35  90 SE15      29.93R
HALLOCK        DRIZZLE   45  43  93 SE14      29.89R
ROSEAU         CLOUDY    52  28  40 S13       29.89F
WARROAD        CLOUDY    52  28  40 S10       29.90F
THIEF RVR FALL CLOUDY    43  37  81 SE15      29.91R
CROOKSTON      MIX PCPN  39  39 100 SE14      29.89R
FOSSTON        LGT RAIN  37  36  93 SE13G24   29.89F
DETROIT LAKES  TSTM      37  36  93 SE18      29.87R
MOORHEAD       LGT RAIN  43  41  93 SE18      29.82F
PARK RAPIDS    LGT SNOW  34  34 100 SE9       29.93R FOG     WCI  27
$$
MNZ006-009>011-018-025>026-240100-
   North Central Minnesota

CITY           SKY/WX    TMP DP  RH WIND       PRES   REMARKS
BAUDETTE       CLOUDY    53  24  32 S10       29.91S
FLAG ISLAND    CLOUDY    50  23  34 E9        29.90F
INTL FALLS     CLOUDY    52  24  33 SE10      29.94F
6HR MIN TEMP:  52; 6HR MAX TEMP:  56;

WASKISH        CLOUDY    50  27  40 SE8       29.92F
BIG FORK       CLOUDY    50  25  37 SE10      29.95S
LONGVILLE      LGT RAIN  37  36  93 SE10      29.95S
GRAND RAPIDS   CLOUDY    48  21  34 SE9       29.95S
CRANE LAKE     CLOUDY    50  18  27 SE3       30.00S
ORR            CLOUDY    50  18  27 SE7       29.95S
COOK           CLOUDY    48  23  37 SE7       29.98F
$$
MNZ012-019>021-037-240100-
   Northeast Minnesota

CITY           SKY/WX    TMP DP  RH WIND       PRES   REMARKS
DULUTH         CLOUDY    42  23  46 E13       29.99F
6HR MIN TEMP:  42; 6HR MAX TEMP:  50;

ELY            CLOUDY    46  18  31 SE8       30.01S
HIBBING        CLOUDY    49  24  37 SE12      29.96F
EVELETH        CLOUDY    45  21  39 SE9       29.99F
DULUTH HARBOR  CLOUDY    36  30  80 CALM      30.03F
TWO HARBORS    CLOUDY    39  25  56 E12       30.00F
SILVER BAY     CLOUDY    39  28  65 NE6       30.02F
GRAND MARAIS     N/A     39  28  64 E6        30.07F
G MARAIS ARPRT CLOUDY    39  16  38 E5        30.05F
$$
MNZ029>031-032-039>041-046>048-054>057-064-240100-
   West Central Minnesota

CITY           SKY/WX    TMP DP  RH WIND       PRES   REMARKS
FERGUS FALLS   CLOUDY    41  36  81 SE26G32   29.78S THUNDER
WHEATON        CLOUDY    45  39  81 E28G36    29.79F
MORRIS         CLOUDY    43  36  75 SE25G31   29.81S
ALEXANDRIA     CLOUDY    40  37  89 SE18G25   29.87S
ELBOW LAKE     CLOUDY    41  36  83 E23G31    29.81F
WADENA         CLOUDY    36  34  93 E14       29.89F
GLENWOOD       CLOUDY    39  36  87 E18G25    29.87R
APPLETON       CLOUDY    45  36  70 SE23G29   29.79F
BENSON         CLOUDY    43  36  75 SE17G25   29.83R
ORTONVILLE     CLOUDY    43  36  75 SE20G31   29.76F
MADISON        CLOUDY    46  39  76 SE25G32   29.77F
WILLMAR        CLOUDY    43  36  75 E20G28    29.86S
$$
MNZ033>034-036-042>043-049>051-058-059-240100-
   Central Minnesota

CITY           SKY/WX    TMP DP  RH WIND       PRES   REMARKS
ST CLOUD       CLOUDY    41  37  86 E10G22    29.92F
6HR MIN TEMP:  41; 6HR MAX TEMP:  45; 6HR PCP:  0.28;

SAUK CENTRE    CLOUDY    39  36  90 E16       29.88F
PAYNESVILLE    CLOUDY    40  36  84 E14G22    29.88F
AITKIN         RAIN      43  36  75 SE9G20    29.95S
PINE RIVER     LGT SNOW  34  34 100 SE9       29.98S WCI  26
BRAINERD       RAIN      42  35  76 SE8       29.96R
STAPLES        RAIN      34  34 100 E7        29.92S WCI  28
LONG PRAIRIE   CLOUDY    37  36  93 E14G21    29.90S
LITTLE FALLS   MIX PCPN  36  36 100 E10G16    29.93F
LITCHFIELD     CLOUDY    43  37  81 E20G26    29.88S
BUFFALO        CLOUDY    41  36  82 E10       29.93F
MAPLE LAKE     CLOUDY    41  39  91 E9        29.92F
$$
MNZ037-044-045-052-053-240100-
   East Central Minnesota

CITY           SKY/WX    TMP DP  RH WIND       PRES   REMARKS
PRINCETON      LGT RAIN  41  37  87 E9        29.95F
MORA           RAIN      37  34  87 CALM      30.00F
CAMBRIDGE      LGT RAIN  43  34  70 E6        29.96S
RUSH CITY      LGT RAIN  40  37  87 E3        30.00R
MOOSE LAKE     CLOUDY    43  28  56 NE5       29.96F
HINCKLEY       DRIZZLE   43  36  75 S5        29.99S
CLOQUET        CLOUDY    41  25  52 E9        29.98F
MCGREGOR       CLOUDY    46  30  53 SE12      29.96S
$$
MNZ071>073-080-081-089-090-097-098-240100-
   Southwest Minnesota

CITY           SKY/WX    TMP DP  RH WIND       PRES   REMARKS
MONTEVIDEO     CLOUDY    43  37  81 S23G29    29.81F
GRANITE FALLS  CLOUDY    44  35  71 E23G32    29.82F
CANBY          CLOUDY    46  38  76 SE26G32   29.75F
MARSHALL       CLOUDY    48  36  61 SE22G29   29.77S
REDWOOD FALLS  CLOUDY    45  36  70 SE20G26   29.83R
OLIVIA         DRIZZLE   43  36  75 SE18G24   29.84R
PIPESTONE      PTSUNNY   52  39  62 S24       29.69S
WINDOM         CLOUDY    45  37  76 SE24G31   29.80R
WORTHINGTON    PTSUNNY   48  34  57 SE26G33   29.76F
JACKSON        CLOUDY    45  36  70 SE18G26   29.81R
TRACY          CLOUDY    47  38  69 SE25G33   29.77S
SLAYTON        PTSUNNY   47  38  69 SE25G32   29.75S
$$
MNZ065>067-074>077-082>085-091>093-240100-
   South Central Minnesota

CITY           SKY/WX    TMP DP  RH WIND       PRES   REMARKS
MANKATO        CLOUDY    45  34  65 SE25G32   29.86F
NEW ULM        CLOUDY    45  36  70 SE18G25   29.84S
ST JAMES       CLOUDY    46  37  71 SE21G26   29.83S
FAIRMONT       CLOUDY    45  36  70 SE28G36   29.82F
GLENCOE        CLOUDY    42  35  76 E17G23    29.87F
FARIBAULT      CLOUDY    45  34  65 E8        29.91F
OWATONNA       CLOUDY    45  36  70 SE15      29.90F
WASECA         CLOUDY    43  32  65 SE21      29.89F
ALBERT LEA     CLOUDY    45  37  76 SE16G22   29.87F
$$
MNZ078>079-086>088-094>096-240100-
   Southeast Minnesota

CITY           SKY/WX    TMP DP  RH WIND       PRES   REMARKS
ROCHESTER      CLOUDY    45  31  58 SE17      29.94S
6HR MIN TEMP:  43; 6HR MAX TEMP:  47; 6HR PCP:  0.01;

RED WING       CLOUDY    43  37  81 E6        29.97R
STANTON        RAIN      43  36  75 E14       29.93S
DODGE CENTER   CLOUDY    46  34  61 SE17      29.92F
WINONA         DRIZZLE   43  37  81 E12       29.98F
AUSTIN         CLOUDY    45  36  70 SE15G21   29.91F
PRESTON        LGT RAIN  45  35  66 SE9       29.96S
$$
ABBREVIATIONS USED IN REMARKS
   TC - TEMPERATURES IN CELSIUS
  WCI - WIND CHILL INDEX
   HX - HEAT INDEX
  VSB - VISIBILITY
$$



USA.gov is the U.S. government's official web portal to all federal, state and local government web resources and services.